Overview Statistics Trail Chart Weather Telemetry Raw packets
 

This is the latest recevied weather packets stored in our database for station/object KI6SYE. If no packets are shown the sender has not sent any weather packets the latest 10 day(s).

<< 42 43 44 45 46 47 48 >>
Time Temp. Humidity Pressure Rain* Wind** Luminosity Snow
1788389044 22.78° C 75% 1014.6 hPa 0 mm - 378 W/m² -
1788388741 22.78° C 76% 1014.6 hPa 0 mm - 336 W/m² -
1788388440 23.33° C 75% 1014.5 hPa 0 mm - 56 W/m² -
1788388135 22.78° C 75% 1014.7 hPa 0 mm - 53 W/m² -
1788387833 22.78° C 74% 1014.9 hPa 0 mm - 98 W/m² -
1788387528 22.78° C 74% 1014.9 hPa 0 mm - 91 W/m² -
1788387227 22.78° C 74% 1014.7 hPa 0 mm - 560 W/m² -
1788386923 23.33° C 73% 1014.9 hPa 0 mm - 570 W/m² -
1788386622 23.33° C 72% 1014.9 hPa 0 mm - 582 W/m² -
1788386318 22.78° C 74% 1015.2 hPa 0 mm - 592 W/m² -
1788386013 23.33° C 72% 1015 hPa 0 mm - 603 W/m² -
1788385709 22.78° C 72% 1015.1 hPa 0 mm - 613 W/m² -
1788385408 23.33° C 71% 1015.3 hPa 0 mm - 625 W/m² -
1788385103 23.33° C 71% 1015.3 hPa 0 mm - 633 W/m² -
1788384799 23.89° C 69% 1015.1 hPa 0 mm - 644 W/m² -
1788384497 23.33° C 68% 1015.1 hPa 0 mm - 657 W/m² -
1788384203 23.33° C 68% 1015.4 hPa 0 mm - 662 W/m² -
1788383890 23.33° C 68% 1015.3 hPa 0 mm - 668 W/m² -
1788383585 23.33° C 69% 1015.3 hPa 0 mm - 675 W/m² -
1788383280 23.33° C 69% 1015.4 hPa 0 mm - 680 W/m² -
1788382975 22.78° C 72% 1015.5 hPa 0 mm - 688 W/m² -
1788382673 22.78° C 70% 1015.7 hPa 0 mm - 694 W/m² -
1788382368 22.78° C 72% 1015.6 hPa 0 mm - 699 W/m² -
1788382063 23.33° C 71% 1015.5 hPa 0 mm - 704 W/m² -
1788381758 22.78° C 73% 1015.5 hPa 0 mm - 709 W/m² -

* Rain latest hour (hover to see other rain measurements)
** Current wind speed in m/s (hover to see current wind gust speed)